Location: Central Falls
(41.8900°N, 71.3929°W)
Time: 03:00:03
(UTC+00:00)

Vanguard 2 - Pass Details

Date: 09 December 2023
Orbit: 554 x 2918 km, 32.9° (Epoch: 01 March)

Event Time Altitude Azimuth Distance (km) Brightness Sun altitude
Rises 07:00:33 0° 277° (W) 6,124 - -54.7°
Reaches altitude 10° 07:06:23 10° 264° (W) 4,690 - -53.7°
Maximum altitude 07:14:25 20° 224° (SW) 3,221 - -52.3°
Drops below altitude 10° 07:20:25 10° 180° (S) 3,351 - -51.2°
Sets 07:23:42 0° 163° (SSE) 3,963 - -50.6°
